NETSAT-3

Last updated on Sat Dec 13 2025 00:03:49 GMT+0000 (Coordinated Universal Time)

1 46505U 20068V 25345.95748928 .00023036 00000+0 67330-3 0 9992 2 46505 97.8623 333.7176 0004173 295.6302 64.4509 15.35293721286887
UTC large
Height (km)
Speed (km/s)
/
Latitude / Longitude
Inclination (degrees)
Orbital Period (minutes)
Azimuth
Elevation
Range (km)
Doppler Factor

Next 0 passes for location: London (51.5072 / 0.1276)

Sorry there are no passes over London.